Milwaukee Timmerman, WI

1:37 AM CDT on May 30, 2017 (GMT -0500)
Timmerman

Weather History for KMWC - May, 2013

Change the Weather History Date:

Thursday, May 23, 2013

  Actual Average Record
Temperature  
Mean Temperature 46 °F -  
Max Temperature 51 °F 69 °F 90 °F (1977)
Min Temperature 41 °F 49 °F 30 °F (1963)
Degree Days  
Heating Degree Days 19    
Moisture  
Dew Point -16 °F    
Average Humidity 13    
Maximum Humidity 53    
Minimum Humidity 4    
Precipitation  
Precipitation 0.24 in - - ()
Sea Level Pressure  
Sea Level Pressure 30.03 in    
Wind  
Wind Speed 11 mph (NNE)    
Max Wind Speed 20 mph    
Max Gust Speed 29 mph    
Visibility 9 miles    
Events Rain    
Averages and records for this station are not official NWS values.
T = Trace of Precipitation, MM = Missing Value Source: NWS Daily Summary

Daily Weather History Graph

Daily Weather History Graph

Search for Another Location

Airport or City:

Trip Planner

Search our weather history database for the weather conditions in past years. The results will help you decide how hot, cold, wet, or windy it might be!

Date:

Astronomy

May. 23, 2013 Rise Set
Actual Time 5:21 AM CDT 8:17 PM CDT
Civil Twilight 4:47 AM CDT 8:51 PM CDT
Nautical Twilight 4:04 AM CDT 9:34 PM CDT
Astronomical Twilight 3:14 AM CDT 10:24 PM CDT
Moon 6:47 PM CDT (5/23) 4:08 AM CDT (5/23)
Length of Visible Light 16h 03m
Length of Day
14h 56m
Waxing Gibbous, 97% of the Moon is Illuminated
May 23
Waxing Gibbous
May 24
Full
May 31
Last Quarter
Jun 8
New
Jun 16
First Quarter

Hourly Weather History & Observations

Time (CDT) Temp. Windchill Dew Point Humidity Pressure Visibility Wind Dir Wind Speed Gust Speed Precip Events Conditions
12:15 AM 51.8 °F - -36.4 °F 4% 29.78 in 10.0 mi North 6.9 mph - N/A Rain Rain
12:35 AM 51.8 °F - -38.2 °F 4% 29.78 in 10.0 mi North 6.9 mph - N/A   Overcast
12:55 AM 51.8 °F - -41.8 °F 4% 29.79 in 7.0 mi North 4.6 mph - N/A Rain Rain
1:15 AM 51.8 °F - -40.0 °F 4% 29.79 in 4.0 mi North 8.1 mph - 0.02 in   Heavy Drizzle
1:35 AM 51.8 °F - -41.8 °F 4% 29.80 in 5.0 mi North 6.9 mph - 0.03 in Rain Rain
1:55 AM 51.8 °F - -38.2 °F 4% 29.80 in 4.0 mi NNW 10.4 mph - 0.07 in Rain Rain
2:15 AM 50.0 °F - -36.4 °F 4% 29.81 in 4.0 mi North 10.4 mph - 0.04 in Rain Rain
2:35 AM 50.0 °F - -36.4 °F 4% 29.81 in 3.0 mi North 8.1 mph - 0.08 in Rain Heavy Rain
2:55 AM 51.8 °F - -38.2 °F 4% 29.82 in 4.0 mi North 10.4 mph 17.3 mph 0.12 in Rain Heavy Rain
3:15 AM 50.0 °F - -43.6 °F 4% 29.82 in 4.0 mi North 11.5 mph 17.3 mph 0.01 in   Drizzle
3:35 AM 50.0 °F - -23.8 °F 4% 29.83 in 5.0 mi NNE 19.6 mph 24.2 mph 0.01 in   Drizzle
3:55 AM 50.0 °F - -32.8 °F 4% 29.83 in 5.0 mi North 15.0 mph 25.3 mph 0.01 in Rain Light Rain
4:15 AM 50.0 °F - -36.4 °F 4% 29.84 in 7.0 mi NNE 17.3 mph 24.2 mph 0.01 in Rain Light Rain
4:35 AM 48.2 °F - -34.6 °F 4% 29.85 in 5.0 mi NNE 15.0 mph 27.6 mph 0.02 in Rain Rain
4:55 AM 48.2 °F - - N/A% 29.86 in 10.0 mi North 18.4 mph 24.2 mph 0.04 in Rain Light Rain
5:15 AM 50.0 °F - -36.4 °F 4% 29.87 in 10.0 mi North 19.6 mph 28.8 mph N/A   Light Drizzle
5:35 AM 48.2 °F - -2.2 °F 12% 29.88 in 10.0 mi NNE 17.3 mph 26.5 mph N/A Rain Light Rain
5:55 AM 48.2 °F - -0.4 °F 13% 29.90 in 10.0 mi North 13.8 mph 23.0 mph N/A Rain Light Rain
6:15 AM 48.2 °F - -0.4 °F 13% 29.91 in 10.0 mi North 10.4 mph - N/A   Overcast
6:35 AM 48.2 °F - -0.4 °F 13% 29.91 in 10.0 mi North 17.3 mph 25.3 mph N/A   Overcast
6:45 AM 48.2 °F - -2.2 °F 12% 29.91 in 10.0 mi North 12.7 mph 21.9 mph N/A   Overcast
6:55 AM 46.4 °F 40.7 °F -4.0 °F 12% 29.93 in 10.0 mi North 12.7 mph 18.4 mph N/A   Overcast
7:45 AM 48.2 °F - -0.4 °F 13% 29.96 in 10.0 mi North 16.1 mph 26.5 mph N/A   Overcast
8:45 AM 46.4 °F 39.0 °F 1.4 °F 16% 30.00 in 10.0 mi North 19.6 mph 24.2 mph N/A Rain Light Rain
9:45 AM 44.6 °F 37.2 °F 28.4 °F 53% 30.03 in 10.0 mi North 17.3 mph 27.6 mph N/A   Overcast
10:45 AM 46.4 °F 39.2 °F 28.4 °F 50% 30.07 in 10.0 mi North 18.4 mph 25.3 mph N/A   Overcast
11:45 AM 46.4 °F 39.8 °F 30.2 °F 53% 30.10 in 10.0 mi NNE 16.1 mph 26.5 mph N/A   Overcast
12:45 PM 46.4 °F 40.1 °F 19.4 °F 34% 30.11 in 10.0 mi NNE 15.0 mph 24.2 mph N/A   Overcast
1:45 PM 48.2 °F - -0.4 °F 13% 30.14 in 10.0 mi NE 10.4 mph - N/A   Overcast
2:45 PM 48.2 °F - - N/A% 30.16 in 10.0 mi NE 15.0 mph 23.0 mph N/A   Mostly Cloudy
3:45 PM 46.4 °F 40.4 °F - N/A% 30.17 in 10.0 mi NNE 13.8 mph 23.0 mph N/A   Mostly Cloudy
4:45 PM 48.2 °F - - N/A% 30.19 in 10.0 mi NE 11.5 mph 16.1 mph N/A   Clear
5:45 PM 46.4 °F 40.7 °F - N/A% 30.22 in 10.0 mi NNE 12.7 mph 21.9 mph N/A   Clear
6:45 PM 46.4 °F 40.7 °F - N/A% 30.25 in 10.0 mi NE 12.7 mph - N/A   Clear
7:45 PM 44.6 °F 40.2 °F - N/A% 30.26 in 10.0 mi NE 8.1 mph - N/A   Clear
8:45 PM 42.8 °F 37.0 °F - N/A% 30.27 in 10.0 mi NE 10.4 mph - N/A   Clear
9:15 PM 41.0 °F 36.4 °F - N/A% 30.29 in 10.0 mi NNE 6.9 mph - N/A   Clear
9:35 PM 41.0 °F 36.4 °F - N/A% 30.30 in 10.0 mi NE 6.9 mph - N/A   Clear
9:55 PM 41.0 °F 35.8 °F - N/A% 30.30 in 10.0 mi NE 8.1 mph - N/A   Clear
10:15 PM 41.0 °F 35.8 °F - N/A% 30.31 in 10.0 mi NE 8.1 mph - N/A   Clear
10:35 PM 41.0 °F 36.4 °F - N/A% 30.31 in 10.0 mi NE 6.9 mph - N/A   Clear
10:55 PM 41.0 °F 35.8 °F - N/A% 30.31 in 10.0 mi NE 8.1 mph - N/A   Clear
11:15 PM 41.0 °F 35.2 °F - N/A% 30.32 in 10.0 mi NE 9.2 mph - N/A   Clear
11:35 PM 41.0 °F 37.1 °F - N/A% 30.32 in 10.0 mi NE 5.8 mph - N/A   Clear
11:55 PM 41.0 °F 37.1 °F - N/A% 30.33 in 10.0 mi NNE 5.8 mph - N/A   Clear